Location: Newark
(11.2914°S, 14.4718°E)
Time: 11:21:24
(UTC+00:00)

Tiros 1 despin weight - Pass Details

Date: 19 September 2019
Orbit: 594 x 643 km, 48.2° (Epoch: 17 October)

Event Time Altitude Azimuth Distance (km) Brightness Sun altitude
Rises 20:41:35 0° 330° (NNW) 2,819 - -55.2°
Reaches altitude 10° 20:43:53 10° 335° (NNW) 1,927 - -55.8°
Maximum altitude 20:48:11 51° 51° (NE) 759 - -56.8°
Drops below altitude 10° 20:52:34 10° 127° (SE) 1,968 - -57.8°
Sets 20:54:56 0° 132° (SE) 2,885 - -58.4°
